Home   Weather   Paris   Past weeks
Flag for France

Past Weather in Paris, Île-de-France, France — Yesterday and Last 2 Weeks

Now
39 °F

Passing clouds.


Feels Like: 34 °F
Forecast: 39 / 31 °F
Wind: 8 mph from South

Location: Villacoublay

Current Time: Jan 18, 2019 at 4:54:41 pm

Latest Report: Jan 18, 2019 at 4:00 pm


Visibility: N/A

Pressure: 30.04 "Hg

Humidity: 65%

Dew Point: 28 °F

Location of ParisLocation

Past Weather in Paris — Graph

°F

Paris Temperature Yesterday

Maximum temperature yesterday: 46 °F (at 1:30 pm)
Minimum temperature yesterday: 32 °F (at 11:00 pm)
Average temperature yesterday: 40 °F

High & Low Weather Summary for the Past Weeks

 TemperatureHumidityPressure
High52 °F (Jan 13, 12:00 pm)100% (Jan 4, 3:00 am)30.72 "Hg (Jan 4, 3:00 am)
Low27 °F (Jan 18, 6:30 am)61% (Jan 18, 2:30 pm)29.74 "Hg (Jan 16, 10:30 pm)
Average41 °F84%30.30 "Hg
* Reported Jan 3 3:00 pm — Jan 18 3:30 pm, Paris. Weather by CustomWeather, © 2019

Note: Actual official high and low records may vary slightly from our data, if they occured in-between our weather recording intervals... More about our weather records

Advertising

Paris Weather History for the Previous 24 Hours

Scroll right to see more
 ConditionsComfort  
Time TempWeatherWind HumidityBarometerVisibility
3:30 pm
Fri, Jan 18
39 °FSunny.9 mph65%30.04 "Hg10 mi
3:00 pm41 °FPassing clouds.7 mph61%30.07 "HgN/A
2:30 pm41 °FPassing clouds.6 mph61%30.07 "HgN/A
2:00 pm41 °FPassing clouds.6 mph66%30.07 "HgN/A
1:30 pm39 °FPassing clouds.6 mph65%30.09 "HgN/A
1:00 pm39 °FOvercast.6 mph70%30.09 "HgN/A
12:30 pm37 °FPassing clouds.5 mph70%30.09 "HgN/A
12:00 pm37 °FPassing clouds.3 mph81%30.12 "HgN/A
11:30 am37 °FSunny.5 mph75%30.12 "Hg10 mi
11:00 am36 °FSunny.6 mph81%30.09 "Hg10 mi
10:30 am34 °FSunny.5 mph81%30.09 "Hg10 mi
10:00 am30 °FSunny.2 mph93%30.09 "Hg10 mi
9:30 am30 °FSunny.No wind86%30.09 "Hg10 mi
9:00 am30 °FSunny.No wind86%30.09 "Hg10 mi
8:30 am30 °FClear.3 mph86%30.09 "Hg10 mi
7:30 am30 °FClear.1 mph93%30.09 "Hg10 mi
7:00 am27 °FClear.2 mph100%30.09 "Hg10 mi
6:30 am27 °FClear.No wind100%30.09 "Hg10 mi
6:00 am28 °FClear.3 mph93%30.09 "Hg10 mi
5:30 am28 °FClear.1 mph93%30.09 "Hg10 mi
5:00 am28 °FClear.1 mph93%30.09 "Hg10 mi
4:30 am28 °FClear.3 mph93%30.09 "Hg10 mi
4:00 am28 °FClear.No wind93%30.09 "Hg10 mi
3:30 am28 °FClear.1 mph93%30.09 "Hg10 mi
3:00 am30 °FClear.3 mph93%30.09 "Hg10 mi
2:30 am30 °FPassing clouds.3 mph86%30.09 "HgN/A
2:00 am30 °FClear.7 mph86%30.09 "Hg10 mi
1:30 am28 °FClear.3 mph93%30.09 "Hg10 mi
1:00 am30 °FClear.2 mph86%30.09 "Hg10 mi
12:30 am32 °FClear.2 mph87%30.07 "Hg10 mi
12:00 am32 °FClear.3 mph80%30.07 "Hg10 mi
11:30 pm
Thu, Jan 17
32 °FClear.6 mph87%30.07 "Hg10 mi
11:00 pm32 °FClear.7 mph87%30.07 "Hg10 mi
10:30 pm34 °FClear.7 mph81%30.07 "Hg10 mi
10:00 pm34 °FClear.7 mph81%30.07 "Hg10 mi
9:30 pm34 °FClear.7 mph81%30.04 "Hg10 mi
9:00 pm34 °FClear.7 mph81%30.04 "Hg10 mi
8:30 pm34 °FClear.9 mph81%30.04 "Hg10 mi
8:00 pm34 °FClear.8 mph81%30.01 "Hg10 mi
7:30 pm36 °FClear.7 mph75%30.01 "Hg10 mi
7:00 pm36 °FClear.7 mph75%29.98 "Hg10 mi
6:30 pm37 °FPassing clouds.8 mph75%29.98 "HgN/A
6:00 pm39 °FPassing clouds.8 mph81%29.95 "HgN/A
5:30 pm39 °FPassing clouds.12 mph81%29.95 "HgN/A
5:00 pm39 °FBroken clouds.8 mph87%29.92 "HgN/A
4:30 pm39 °FCloudy.10 mph87%29.92 "HgN/A
4:00 pm39 °FLight rain. Cloudy.12 mph87%29.89 "HgN/A
Weather by CustomWeather, © 2019

See weather overview